Regional Weather Roundup
Issued by NWS

Home | Current Version | Previous Version | Text Only | Print | Product List | Glossary Off
Versions: 1 2 3 4 5 6 7 8 9 10 11 12 13 14 15 16 17 18 19 20 21 22 23 24 25 26 27 28 29 30 31 32 33 34 35 36 37 38 39 40 41 42 43 44 45 46 47 48 49 50

000
ASUS43 KMKX 030511
RWRWI

WISCONSIN REGIONAL WEATHER ROUNDUP
NATIONAL WEATHER SERVICE MILWAUKEE/SULLIVAN WI
1200 AM CDT THU SEP 03 2015

NOTE: "FAIR" INDICATES FEW OR NO CLOUDS BELOW 12,000 FEET WITH NO
SIGNIFICANT WEATHER AND/OR OBSTRUCTIONS TO VISIBILITY.

WIZ001-002-006>008-014>016-023>028-030600-
NORTHWEST WISCONSIN

CITY           SKY/WX    TMP DP  RH WIND       PRES   REMARKS
SUPERIOR ARPT  CLOUDY    59  58  98 NE8       29.97S
ASHLAND        FOG       62  62 100 CALM      29.98S VSB 1/4
HAYWARD        FOG       63  62  97 NE5       29.97S VSB 1/2
SIREN          CLEAR     64  63  96 CALM      29.95S
CUMBERLAND     PTCLDY    63  63 100 CALM      29.96R
RICE LAKE      MOCLDY    64  63  95 CALM      29.96S FOG
CHETEK         CLOUDY   N/A N/A N/A MISG      29.95R
LADYSMITH      MOCLDY    68  66  94 NE3       29.98R
EAU CLAIRE     CLOUDY    69  67  93 CALM      29.92S
MENOMONIE      PTCLDY    68  67  96 CALM      29.93S
NEW RICHMOND   MOCLDY    67  66  97 CALM      29.94S
OSCEOLA        CLEAR     67  67 100 E5        29.96S
$$

WIZ003>005-009-010-017-018-030600-
NORTH CENTRAL WISCONSIN

CITY           SKY/WX    TMP DP  RH WIND       PRES   REMARKS
MANITOWISH WTR PTCLDY    63  63 100 CALM      29.99F FOG
ARBOR VITAE    CLOUDY    66  64  94 CALM      29.98F
WOODRUFF       CLOUDY    66  64  94 CALM      29.98F
RHINELANDER    CLOUDY    66  64  93 E5        29.98F
EAGLE RIVER    DRIZZLE   65  64  99 E7        29.98F
LAND O LAKES   MOCLDY    64  64  98 CALM      30.00F
PHILLIPS       PTCLDY    63  63 100 CALM      29.98R
TOMAHAWK       CLOUDY    65  64  94 CALM      29.97S
MEDFORD        CLOUDY    67  67 100 NE6       29.96R
MERRILL        CLOUDY    67  67 100 NE3       29.96S
$$

WIZ029-030-035-036-043>047-030600-
CENTRAL WISCONSIN

CITY           SKY/WX    TMP DP  RH WIND       PRES   REMARKS
WAUSAU         LGT RAIN  68  67  96 N3        29.93S FOG
MOSINEE        CLOUDY    68  68 100 N6        29.95S FOG
MARSHFIELD     MOCLDY    71  66  84 CALM      29.93F
STEVENS POINT  MOCLDY    67  67  99 N3        29.93F FOG
WAUPACA        MOCLDY    72  71  96 CALM      29.91F
WAUTOMA        PTCLDY    73  70  91 CALM      29.93S
WISC RAPIDS    CLOUDY    73  70  90 SW3       29.93F
CAMP DOUGLAS   CLEAR     76  76 100 SW12      29.92S
$$

WIZ011>013-019>022-031-037>040-048>050-030600-
NORTHEAST WISCONSIN

CITY           SKY/WX    TMP DP  RH WIND       PRES   REMARKS
ANTIGO         CLOUDY    66  66  99 N5        29.95F
SHAWANO        TSTM      69  67  93 NE9       29.92S
OCONTO         CLOUDY    67  67 100 CALM      29.91F
STURGEON BAY   CLOUDY    68  63  83 CALM      29.94F
GREEN BAY      LGT RAIN  70  68  93 CALM      29.90F FOG
MANITOWOC      CLOUDY    61  59  93 MISG      29.93F FOG
APPLETON       MOCLDY    72  66  83 S5        29.90F THUNDER
CLINTONVILLE   CLOUDY    68  66  94 N3        29.91F
OSHKOSH        PTCLDY    73  68  84 SW7       29.91F
$$

WIZ032>034-041-042-053>061-030600-
SOUTHWEST WISCONSIN

CITY           SKY/WX    TMP DP  RH WIND       PRES   REMARKS
LA CROSSE      MOCLDY    76  70  82 S6        29.91R
SPARTA         PTCLDY    69  66  92 CALM      29.93S
VIROQUA          N/A     73  69  90 S7        29.95S
BOSCOBEL       CLOUDY    77  70  79 W3        29.94S
PRAIRIE DU CHI PTCLDY    73  67  82 CALM      29.93S
PLATTEVILLE    CLEAR     71  69  94 S3        29.97R
$$

WIZ056-057-062-063-064-067-068-030600-
SOUTH CENTRAL WISCONSIN

CITY           SKY/WX    TMP DP  RH WIND       PRES   REMARKS
REEDSBURG      MOCLDY    73  69  88 CALM      29.94S
BARABOO/DELLS  CLOUDY    74  67  78 SW8       29.94F
LONE ROCK      CLOUDY    72  69  90 CALM      29.95R
MINERAL POINT  MOCLDY    77  70  78 SW6       29.97S
MADISON        CLOUDY    76  69  79 SW3       29.94F
MIDDLETON      CLOUDY    75  70  83 SW5       29.95F
WATERTOWN      CLOUDY    73  73 100 CALM      29.95S
MONROE         CLOUDY    73  70  88 SW8       29.97S
JANESVILLE     PTCLDY    73  70  88 S6        29.95F
$$

WIZ051-052-058>065-066-070>072-030600-
SOUTHEAST WISCONSIN

CITY           SKY/WX    TMP DP  RH WIND       PRES   REMARKS
MILWAUKEE      MOCLDY    76  70  82 S7        29.95S
WAUKESHA       CLOUDY    72  68  88 CALM      29.96F
MILWAUKEE/TIMM PTCLDY    75  68  78 S5        29.95F
RACINE         CLOUDY    74  69  85 S3        29.97S
BURLINGTON     PTCLDY    69  68  96 S3        29.96S FOG
KENOSHA        PTCLDY    76  69  79 S6        29.96F
FOND DU LAC    PTCLDY    72  68  87 S6        29.92F
SHEBOYGAN      MOCLDY    72  69  90 S7        29.93F
WEST BEND      PTCLDY    72  66  83 CALM      29.94F
JUNEAU         MOCLDY    73  68  84 S5        29.95F
$$

LSZ147-162-030600-
LAKE SUPERIOR

STATION/POSITION TIME  TEMP    WIND        PRES    WAVE
                       AIR SEA DIR/SP/G            HT/PER
                 (UTC) (F)     (DEG/KT/KT) (MB)    (FT/S)
W MID LAKE BUOY  0450   58 56   80/  6/  6 1014.8S   0
DEVILS ISLAND    0500   59      10/  5/  5 1015.2S
PORT WING        0400   60      40/  1/  6 1014.9R
SAXON HARBOR     0400   61      CALM  /  3 1014.6
$$

LMZ867-665-643>646-030600-
LAKE MICHIGAN

STATION/POSITION TIME  TEMP    WIND        PRES    WAVE
                       AIR SEA DIR/SP/G            HT/PER
                 (UTC) (F)     (DEG/KT/KT) (MB)    (FT/S)
CHAMBERS ISLAND  0400   66     240/ 14/ 20 1014.2R
S GREEN BAY BUOY 0500   67 66  310/  6/  6 1014.5F
N MID LAKE BUOY  0450   67 66  130/  4/  6 1013.3F   1
NORTHPORT PIER   0400   67     150/  6/  9 1013.5S
SISTER BAY       0419   68     130/  8/ 11   N/A
ALGOMA LAKESHORE 0414          230/  4/  6   N/A
KEWAUNEE LAKESHO 0400   58     180/ 10/ 10 1012.6F
SHEBOYGAN LAKESH 0500   69     200/  9/ 10 1013.3F
PORT WASHINGTON  0440   64     200/  4/  5 1014.2F
ATWATER BUOY     0500   60     170/  6/  8 1015.3F
MILWAUKEE LAKESH 0410   65     150/  3/  4   N/A
S MID LAKE BUOY  0450   74 71  180/  8/ 10 1013.8F
KENOSHA   LAKESH 0500   66     170/ 10/ 11 1014.2S
$$

TC  - TEMPERATURE IN CELSIUS
VSB - VISIBILITY IN STATUTE MILES
WCI - WIND CHILL INDEX
HX  - HEAT INDEX




USA.gov is the U.S. government's official web portal to all federal, state and local government web resources and services.